Flag for Belgium Weather past 2 weeks in Charleroi, Belgium

Now
57 °F

Passing clouds.


Feels Like: 57 °F
Forecast: 53 / 70 °F
Wind: 3 mph from South

Location: Charleroi / Gosselies

Current Time: Oct 2, 2014 at 5:24:19 AM

Latest Report: Oct 2, 2014 at 4:50 AM


Visibility: N/A

Pressure: 30.39 "Hg

Humidity: 94%

Dew point: 55 °F

Location of CharleroiLocation

Historic Weather in Charleroi — Graph

°F

Charleroi temperature yesterday

Maximum temperature yesterday: 68 °F (at 2:20 PM)
Minimum temperature yesterday: 55 °F (at 3:50 AM)
Average temperature yesterday: 62 °F

Past Weeks' High & Low Weather Summary

 TemperatureHumidityPressure
High77 °F (Sep 17, 2:20 PM)100% (Sep 18, 10:20 PM)30.39 "Hg (Sep 18, 10:20 PM)
Low46 °F (Sep 24, 5:20 AM)44% (Sep 17, 2:50 PM)29.80 "Hg (Sep 18, 5:20 AM)
Average60 °F82%30.12 "Hg
* Reported Sep 17 4:20 AM — Oct 2 4:20 AM, Charleroi, Weather by CustomWeather, © 2014

Note: Actual official high and low records may vary slightly from our data, if they occured in-between our weather recording intervals... More about our weather records

Advertising

Charleroi weather history for previous 24 hours

 ConditionsComfort  
Time TempWeatherWind HumidityBarometerVisibility
4:20 AM
Oct 2
57 °FPassing clouds.2 mph94%30.39 "HgN/A
3:50 AM57 °FPassing clouds.2 mph94%30.39 "HgN/A
3:20 AM55 °FPassing clouds.2 mph100%30.39 "HgN/A
2:50 AM57 °FClear.5 mph94%30.39 "Hg10 mi
2:20 AM57 °FPassing clouds.2 mph94%30.39 "HgN/A
1:50 AM59 °FPassing clouds.3 mph88%30.39 "HgN/A
1:20 AM59 °FPassing clouds.5 mph88%30.36 "HgN/A
12:50 AM59 °FPassing clouds.3 mph94%30.36 "HgN/A
12:20 AM61 °FPassing clouds.5 mph83%30.36 "HgN/A
11:50 PM
Oct 1
61 °FPassing clouds.3 mph83%30.36 "HgN/A
11:20 PM61 °FPassing clouds.3 mph88%30.36 "HgN/A
10:50 PM63 °FPassing clouds.2 mph77%30.36 "HgN/A
10:20 PM63 °FPassing clouds.3 mph77%30.36 "HgN/A
9:50 PM63 °FPassing clouds.3 mph83%30.36 "HgN/A
9:20 PM64 °FClear.2 mph73%30.36 "Hg10 mi
8:50 PM63 °FClear.3 mph77%30.36 "Hg10 mi
8:20 PM64 °FSunny.2 mph73%30.33 "Hg10 mi
7:50 PM64 °FPassing clouds.3 mph68%30.33 "HgN/A
7:20 PM66 °FPassing clouds.3 mph64%30.33 "HgN/A
6:50 PM66 °FPassing clouds.5 mph64%30.33 "HgN/A
6:20 PM68 °FPassing clouds.7 mph64%30.33 "HgN/A
5:50 PM68 °FPassing clouds.7 mph60%30.33 "HgN/A
5:20 PM68 °FPassing clouds.7 mph60%30.33 "HgN/A
4:50 PM68 °FPassing clouds.7 mph60%30.33 "HgN/A
4:20 PM68 °FPassing clouds.6 mph60%30.33 "HgN/A
3:50 PM68 °FPassing clouds.6 mph60%30.33 "HgN/A
3:20 PM68 °FPassing clouds.7 mph60%30.33 "HgN/A
2:50 PM68 °FPassing clouds.7 mph60%30.33 "HgN/A
2:20 PM68 °FPassing clouds.7 mph60%30.33 "HgN/A
1:50 PM66 °FPassing clouds.7 mph64%30.33 "HgN/A
1:20 PM66 °FPassing clouds.7 mph68%30.33 "HgN/A
12:50 PM66 °FPassing clouds.7 mph68%30.36 "HgN/A
12:20 PM66 °FPassing clouds.6 mph68%30.36 "HgN/A
11:50 AM64 °FPassing clouds.7 mph73%30.36 "HgN/A
11:20 AM63 °FPassing clouds.7 mph83%30.33 "HgN/A
10:50 AM63 °FPassing clouds.5 mph83%30.33 "Hg6 mi
10:20 AM61 °FPassing clouds.5 mph88%30.33 "Hg4 mi
9:50 AM59 °FFog.5 mph94%30.33 "Hg3 mi
9:20 AM57 °FFog.5 mph100%30.33 "Hg2 mi
8:50 AM57 °FFog.3 mph94%30.33 "Hg1 mi
8:20 AM55 °FFog.2 mph94%30.30 "Hg1 mi
7:50 AM55 °FFog.2 mph94%30.30 "Hg1 mi
7:20 AM55 °FFog.3 mph94%30.30 "Hg1 mi
6:50 AM55 °FFog.3 mph100%30.30 "Hg1 mi
6:20 AM55 °FPassing clouds.2 mph100%30.30 "Hg1 mi
5:50 AM55 °FLight fog.2 mph94%30.30 "Hg1 mi
5:20 AM55 °FPassing clouds.3 mph100%30.30 "Hg1 mi
Weather by CustomWeather, © 2014

See weather overviewHow to use our weather pages